Find Kuiper-00132

NORAD ID: 65763 Int'l Des: 2025-217 Owner: KUIP Country: US Constellation: kuiper operational
LEOCIRCULAR

Live-Position

3D-Globus wird geladen...

Über Kuiper-00132

Beschreibung wird geladen...

Nächste Überflüge

Passes for default location (London). Set your location on the main map for personalized predictions.

Höhenverlauf

Loading altitude history...

Zweizeiliger Elementsatz

1 65763U 25217B 26105.92045899 .00017254 00000-0 41828-3 0 9999
2 65763 51.8563 182.5608 0006204 91.1893 268.9806 15.41147852 31168
Epoch: 15. Apr. 2026 • Age: 11 hours

Aktueller Status

Höhe 461.9 km
Geschwindigkeit 7.63 km/s
Subsatellitenpunkt -45.55°S, 152.58°E
Startdatum 25. Sept. 2025
Alter 0.5 years
Typ internet

Technische Details

Klassifizierung Payload
Masse 490.00 kg
Trockenmasse 490.00 kg
Gesamtmasse 490.00 kg
Länge 1.80 m
Durchmesser 0.70 m
Spannweite 5.00 m
Form Box + 2 pan
Hersteller KUIP
Bus-Typ Kuiper
Phasenstatus In Orbit
Besitzer/Staat KUIP/US

Most Searched